| time (UTC) | temp F | wind direction | speed knots | gust knots | rain 1hr in | rain 24hr in | rain mn in | humidity % | barometer mb |
| 20260901161609 | 85 | 247 | 7.0 | 0.0 | 0.00 | 0.00 | 0.00 | 70 | 990.1 |
| 20260901160110 | 85 | 250 | 6.1 | 0.0 | 0.00 | 0.00 | 0.00 | 70 | 990.1 |
| 20260901154609 | 84 | 247 | 7.0 | 0.0 | 0.00 | 0.00 | 0.00 | 81 | 989.9 |
| 20260901153104 | 83 | 248 | 6.1 | 0.0 | 0.00 | 0.00 | 0.00 | 81 | 989.9 |
| 20260901151606 | 82 | 257 | 4.3 | 0.0 | 0.00 | 0.00 | 0.00 | 81 | 989.9 |
| 20260901150105 | 81 | 254 | 5.2 | 0.0 | 0.00 | 0.00 | 0.00 | 81 | 989.9 |
| 20260901144604 | 80 | 248 | 6.1 | 0.0 | 0.00 | 0.00 | 0.00 | 88 | 989.1 |
| 20260901143110 | 80 | 243 | 4.3 | 0.0 | 0.00 | 0.00 | 0.00 | 85 | 990.3 |
| 20260901141611 | 79 | 236 | 4.3 | 0.0 | 0.00 | 0.00 | 0.00 | 81 | 990.8 |
| 20260901140110 | 78 | 228 | 4.3 | 0.0 | 0.00 | 0.00 | 0.00 | 81 | 990.8 |
| 20260901134611 | 77 | 243 | 5.2 | 0.0 | 0.00 | 0.00 | 0.00 | 87 | 990.0 |
| 20260901133110 | 76 | 232 | 4.3 | 0.0 | 0.00 | 0.00 | 0.00 | 87 | 990.0 |
| 20260901131609 | 75 | 212 | 4.3 | 0.0 | 0.00 | 0.00 | 0.00 | 87 | 990.0 |
| 20260901130113 | 74 | 195 | 5.2 | 0.0 | 0.00 | 0.00 | 0.00 | 87 | 990.0 |
| 20260901124630 | 73 | 184 | 5.2 | 0.0 | 0.00 | 0.00 | 0.00 | 92 | 989.4 |
| 20260901123111 | 72 | 170 | 3.5 | 0.0 | 0.00 | 0.00 | 0.00 | 91 | 989.2 |
| 20260901121609 | 70 | 158 | 4.3 | 0.0 | 0.00 | 0.00 | 0.00 | 91 | 989.2 |
| 20260901120117 | 69 | 153 | 3.5 | 0.0 | 0.00 | 0.00 | 0.00 | 91 | 989.2 |
| 20260901114610 | 69 | 153 | 3.5 | 0.0 | 0.00 | 0.00 | 0.00 | 89 | 988.4 |
| 20260901113115 | 69 | 156 | 3.5 | 0.0 | 0.00 | 0.00 | 0.00 | 87 | 988.9 |
| 20260901111610 | 68 | 164 | 3.5 | 0.0 | 0.00 | 0.00 | 0.00 | 87 | 988.9 |
| 20260901110114 | 69 | 172 | 3.5 | 0.0 | 0.00 | 0.00 | 0.00 | 87 | 988.9 |
| 20260901104613 | 69 | 168 | 4.3 | 0.0 | 0.00 | 0.00 | 0.00 | 84 | 989.3 |
| 20260901103114 | 69 | 158 | 4.3 | 0.0 | 0.00 | 0.00 | 0.00 | 84 | 989.3 |
| 20260901101617 | 69 | 166 | 4.3 | 0.0 | 0.00 | 0.00 | 0.00 | 84 | 989.3 |
| 20260901100117 | 69 | 158 | 4.3 | 0.0 | 0.00 | 0.00 | 0.00 | 84 | 989.3 |
| 20260901094610 | 70 | 167 | 3.5 | 0.0 | 0.00 | 0.00 | 0.00 | 84 | 988.2 |
| 20260901093115 | 70 | 167 | 4.3 | 0.0 | 0.00 | 0.00 | 0.00 | 85 | 988.6 |
| 20260901091616 | 70 | 162 | 3.5 | 0.0 | 0.00 | 0.00 | 0.00 | 85 | 988.6 |
| 20260901090115 | 70 | 164 | 3.5 | 0.0 | 0.00 | 0.00 | 0.00 | 85 | 988.6 |
| 20260901084609 | 70 | 177 | 3.5 | 0.0 | 0.00 | 0.00 | 0.00 | 86 | 988.2 |
| 20260901083114 | 70 | 177 | 3.5 | 0.0 | 0.00 | 0.00 | 0.00 | 85 | 987.8 |
| 20260901081615 | 70 | 187 | 4.3 | 0.0 | 0.00 | 0.00 | 0.00 | 85 | 987.8 |
| 20260901080111 | 70 | 185 | 3.5 | 0.0 | 0.00 | 0.00 | 0.00 | 85 | 988.3 |
| 20260901074615 | 70 | 190 | 4.3 | 0.0 | 0.00 | 0.00 | 0.00 | 87 | 988.0 |
| 20260901073114 | 70 | 189 | 4.3 | 0.0 | 0.00 | 0.00 | 0.00 | 87 | 988.0 |
| 20260901071609 | 71 | 192 | 4.3 | 0.0 | 0.00 | 0.00 | 0.00 | 87 | 988.0 |
| 20260901070109 | 71 | 184 | 2.6 | 0.0 | 0.00 | 0.00 | 0.00 | 87 | 988.0 |
| 20260901064616 | 71 | 212 | 1.7 | 0.0 | 0.00 | 0.00 | 0.00 | 88 | 988.2 |
| 20260901063103 | 71 | 225 | 1.7 | 0.0 | 0.00 | 0.00 | 0.00 | 88 | 988.2 |
| 20260901061610 | 71 | 205 | 2.6 | 0.0 | 0.00 | 0.00 | 0.00 | 88 | 988.2 |
| 20260901060115 | 71 | 186 | 3.5 | 0.0 | 0.00 | 0.00 | 0.00 | 88 | 988.2 |
| 20260901054614 | 71 | 192 | 4.3 | 0.0 | 0.00 | 0.00 | 0.00 | 84 | 988.5 |
| 20260901053115 | 72 | 189 | 4.3 | 0.0 | 0.00 | 0.00 | 0.00 | 86 | 988.2 |
| 20260901051609 | 72 | 200 | 3.5 | 0.0 | 0.00 | 0.00 | 0.00 | 86 | 988.2 |
| 20260901050120 | 72 | 201 | 4.3 | 0.0 | 0.00 | 0.00 | 0.00 | 86 | 988.2 |
| 20260901044614 | 72 | 196 | 4.3 | 0.0 | 0.00 | 0.00 | 0.00 | 81 | 988.5 |
| 20260901043109 | 73 | 225 | 2.6 | 0.0 | 0.00 | 0.00 | 0.00 | 84 | 988.2 |
| 20260901041613 | 72 | 231 | 2.6 | 0.0 | 0.00 | 0.00 | 0.00 | 84 | 988.2 |
| 20260901040118 | 72 | 235 | 1.7 | 0.0 | 0.00 | 0.00 | 0.00 | 84 | 988.2 |
| 20260901034613 | 73 | 230 | 2.6 | 0.0 | 0.00 | 0.00 | 0.00 | 82 | 988.2 |
| 20260901033113 | 73 | 232 | 2.6 | 0.0 | 0.00 | 0.00 | 0.00 | 85 | 988.4 |
| 20260901031613 | 73 | 216 | 4.3 | 0.0 | 0.00 | 0.00 | 0.00 | 85 | 988.3 |
| 20260901030113 | 73 | 211 | 4.3 | 0.0 | 0.00 | 0.00 | 0.00 | 85 | 988.3 |
| 20260901024613 | 73 | 221 | 3.5 | 0.0 | 0.00 | 0.00 | 0.00 | 82 | 989.5 |
| 20260901023113 | 74 | 208 | 4.3 | 0.0 | 0.00 | 0.00 | 0.00 | 85 | 989.0 |
| 20260901021612 | 74 | 198 | 6.1 | 0.0 | 0.00 | 0.00 | 0.00 | 85 | 988.9 |
| 20260901020118 | 74 | 206 | 5.2 | 0.0 | 0.00 | 0.00 | 0.00 | 85 | 988.9 |
| 20260901014612 | 74 | 195 | 5.2 | 0.0 | 0.00 | 0.00 | 0.00 | 85 | 988.9 |
| 20260901013110 | 74 | 202 | 5.2 | 0.0 | 0.00 | 0.00 | 0.00 | 85 | 988.9 |
| 20260901011613 | 73 | 230 | 2.6 | 0.0 | 0.00 | 0.00 | 0.00 | 85 | 988.8 |
| 20260901010115 | 74 | 209 | 4.3 | 0.0 | 0.00 | 0.00 | 0.00 | 85 | 988.8 |
| 20260901004612 | 74 | 212 | 4.3 | 0.0 | 0.00 | 0.00 | 0.00 | 80 | 988.7 |
| 20260901003111 | 75 | 242 | 3.5 | 0.0 | 0.00 | 0.00 | 0.00 | 81 | 988.5 |
| 20260901001611 | 76 | 223 | 3.5 | 0.0 | 0.00 | 0.00 | 0.00 | 81 | 988.5 |
| 20260901000110 | 77 | 234 | 4.3 | 0.0 | 0.00 | 0.00 | 0.00 | 81 | 988.5 |
| 20260831234614 | 78 | 222 | 4.3 | 0.0 | 0.00 | 0.02 | 0.02 | 75 | 988.4 |
| 20260831233113 | 78 | 218 | 4.3 | 0.0 | 0.00 | 0.02 | 0.02 | 68 | 988.2 |
| 20260831231614 | 80 | 217 | 7.0 | 0.0 | 0.00 | 0.02 | 0.02 | 68 | 988.2 |
| 20260831230115 | 80 | 200 | 7.8 | 0.0 | 0.00 | 0.02 | 0.02 | 68 | 988.2 |
| 20260831224613 | 81 | 202 | 8.7 | 0.0 | 0.00 | 0.02 | 0.02 | 64 | 988.7 |
| 20260831223115 | 82 | 210 | 9.6 | 0.0 | 0.00 | 0.02 | 0.02 | 62 | 989.1 |
| 20260831221610 | 83 | 212 | 10.4 | 0.0 | 0.00 | 0.02 | 0.02 | 62 | 989.1 |
| 20260831220114 | 83 | 210 | 11.3 | 0.0 | 0.00 | 0.02 | 0.02 | 62 | 989.1 |
| 20260831214613 | 84 | 205 | 11.3 | 0.0 | 0.00 | 0.02 | 0.02 | 63 | 989.6 |
| 20260831213110 | 84 | 201 | 11.3 | 0.0 | 0.00 | 0.02 | 0.02 | 56 | 989.1 |
| 20260831211612 | 85 | 203 | 12.2 | 0.0 | 0.00 | 0.02 | 0.02 | 56 | 989.2 |
| 20260831210113 | 85 | 201 | 12.2 | 0.0 | 0.00 | 0.02 | 0.02 | 56 | 989.2 |
| 20260831204610 | 85 | 200 | 11.3 | 0.0 | 0.01 | 0.02 | 0.02 | 63 | 990.2 |
| 20260831203110 | 85 | 200 | 11.3 | 0.0 | 0.01 | 0.02 | 0.02 | 80 | 989.8 |
| 20260831201612 | 81 | 193 | 8.7 | 0.0 | 0.00 | 0.01 | 0.01 | 80 | 989.5 |
| 20260831200113 | 77 | 180 | 7.8 | 0.0 | 0.00 | 0.01 | 0.01 | 74 | 990.0 |
| 20260831194613 | 77 | 189 | 8.7 | 0.0 | 0.00 | 0.01 | 0.01 | 72 | 990.7 |
| 20260831193112 | 78 | 211 | 10.4 | 0.0 | 0.00 | 0.01 | 0.01 | 72 | 990.7 |
| 20260831191612 | 81 | 243 | 4.3 | 0.0 | 0.03 | 0.03 | 0.03 | 72 | 990.7 |
| 20260831190114 | 80 | 176 | 6.1 | 0.0 | 0.03 | 0.03 | 0.03 | 63 | 990.1 |
| 20260831184610 | 83 | 204 | 10.4 | 0.0 | 0.00 | 0.00 | 0.00 | 64 | 990.4 |
| 20260831183111 | 84 | 187 | 10.4 | 0.0 | 0.00 | 0.00 | 0.00 | 64 | 990.4 |
| 20260831181611 | 84 | 180 | 10.4 | 0.0 | 0.00 | 0.00 | 0.00 | 64 | 990.4 |
| 20260831180112 | 83 | 184 | 9.6 | 0.0 | 0.00 | 0.00 | 0.00 | 64 | 990.4 |
| 20260831174611 | 83 | 198 | 10.4 | 0.0 | 0.00 | 0.00 | 0.00 | 67 | 991.3 |
| 20260831173111 | 83 | 197 | 10.4 | 0.0 | 0.00 | 0.00 | 0.00 | 64 | 990.2 |
| 20260831171611 | 82 | 200 | 11.3 | 0.0 | 0.00 | 0.00 | 0.00 | 64 | 990.2 |
| 20260831170112 | 82 | 199 | 10.4 | 0.0 | 0.00 | 0.00 | 0.00 | 64 | 990.2 |
| 20260831164611 | 81 | 197 | 9.6 | 0.0 | 0.00 | 0.00 | 0.00 | 71 | 991.9 |
| 20260831163311 | 0 | 0 | 0.0 | 0.0 | 0.00 | 0.00 | 0.00 | 100 |